Muscatine, IA

1:15 AM CDT on September 26, 2017 (GMT -0500)
Muscatine Municipal

Weather History for KMUT - January, 2013

Change the Weather History Date:

Friday, January 11, 2013

  Actual Average Record
Temperature  
Mean Temperature 46 °F -  
Max Temperature 55 °F 28 °F 57 °F (2012)
Min Temperature 37 °F 10 °F -16 °F (1979)
Degree Days  
Heating Degree Days 19    
Moisture  
Dew Point 43 °F    
Average Humidity 82    
Maximum Humidity 93    
Minimum Humidity 67    
Precipitation  
Precipitation 0.01 in - - ()
Sea Level Pressure  
Sea Level Pressure 29.67 in    
Wind  
Wind Speed 7 mph (South)    
Max Wind Speed 18 mph    
Max Gust Speed 25 mph    
Visibility 6 miles    
Events Fog    
Averages and records for this station are not official NWS values.
T = Trace of Precipitation, MM = Missing Value Source: NWS Daily Summary

Daily Weather History Graph

Daily Weather History Graph

Search for Another Location

Airport or City:

Trip Planner

Search our weather history database for the weather conditions in past years. The results will help you decide how hot, cold, wet, or windy it might be!

Date:

Astronomy

Jan. 11, 2013 Rise Set
Actual Time 7:29 AM CST 4:55 PM CST
Civil Twilight 6:58 AM CST 5:26 PM CST
Nautical Twilight 6:24 AM CST 6:00 PM CST
Astronomical Twilight 5:51 AM CST 6:34 PM CST
Moon 7:02 AM CST (1/11) 5:14 PM CST (1/11)
Length of Visible Light 10h 27m
Length of Day
9h 26m
Waning Crescent, 0% of the Moon is Illuminated
Jan 11
Waning Crescent
Jan 11
New
Jan 18
First Quarter
Jan 26
Full
Feb 3
Last Quarter

Hourly Weather History & Observations

Time (CST) Temp. Windchill Dew Point Humidity Pressure Visibility Wind Dir Wind Speed Gust Speed Precip Events Conditions
12:15 AM 42.8 °F 41.1 °F 37.4 °F 81% 29.77 in 1.2 mi ESE 3.5 mph - N/A   Overcast
12:35 AM 42.8 °F - 37.4 °F 81% 29.77 in 0.5 mi Calm Calm - N/A Fog Fog
12:55 AM 41.0 °F - 37.4 °F 87% 29.76 in 0.2 mi Calm Calm - N/A Fog Fog
1:15 AM 41.0 °F - 37.4 °F 87% 29.74 in 0.2 mi Calm Calm - N/A Fog Fog
1:35 AM 42.8 °F - 37.4 °F 81% 29.72 in 0.2 mi Calm Calm - N/A Fog Fog
1:55 AM 41.0 °F - 37.4 °F 87% 29.72 in 0.2 mi Calm Calm - N/A Fog Fog
2:15 AM 37.4 °F 34.9 °F 35.6 °F 93% 29.70 in 0.2 mi West 3.5 mph - N/A Fog Fog
2:35 AM 39.2 °F - 35.6 °F 87% 29.70 in 0.2 mi Calm Calm - N/A Fog Fog
2:55 AM 37.4 °F 32.8 °F 35.6 °F 93% 29.72 in 0.2 mi SW 5.8 mph - N/A Fog Fog
3:15 AM 39.2 °F - 35.6 °F 87% 29.72 in 0.2 mi Calm Calm - N/A Fog Fog
3:35 AM 42.8 °F 39.3 °F 39.2 °F 87% 29.72 in 0.8 mi SSE 5.8 mph - N/A   Overcast
3:55 AM 42.8 °F 40.1 °F 37.4 °F 81% 29.71 in 0.8 mi South 4.6 mph - N/A   Overcast
4:15 AM 42.8 °F 40.1 °F 39.2 °F 87% 29.71 in 0.8 mi SSW 4.6 mph - N/A   Overcast
4:35 AM 44.6 °F 41.4 °F 39.2 °F 81% 29.70 in 4.0 mi WSW 5.8 mph - N/A   Overcast
4:55 AM 44.6 °F 40.2 °F 39.2 °F 81% 29.70 in 7.0 mi SW 8.1 mph - N/A   Overcast
5:15 AM 42.8 °F 39.3 °F 39.2 °F 87% 29.72 in 7.0 mi SW 5.8 mph - 0.01 in   Overcast
5:35 AM 44.6 °F 40.7 °F 39.2 °F 81% 29.70 in 2.5 mi WSW 6.9 mph - 0.01 in   Overcast
5:55 AM 42.8 °F 38.0 °F 39.2 °F 87% 29.70 in 1.2 mi SSW 8.1 mph - 0.01 in   Overcast
6:15 AM 42.8 °F 39.3 °F 39.2 °F 87% 29.71 in 1.5 mi SSW 5.8 mph - N/A   Overcast
6:35 AM 42.8 °F 41.1 °F 39.2 °F 87% 29.70 in 1.0 mi South 3.5 mph - N/A   Overcast
6:55 AM 44.6 °F 39.7 °F 39.2 °F 81% 29.71 in 0.5 mi South 9.2 mph - N/A Fog Fog
7:15 AM 44.6 °F 40.2 °F 39.2 °F 81% 29.72 in 0.5 mi SSW 8.1 mph - N/A Fog Fog
7:35 AM 44.6 °F 40.2 °F 39.2 °F 81% 29.72 in 0.5 mi South 8.1 mph - N/A Fog Fog
7:55 AM 44.6 °F 38.8 °F 41.0 °F 87% 29.72 in 3.0 mi South 11.5 mph - N/A   Overcast
8:15 AM 44.6 °F 39.7 °F 41.0 °F 87% 29.73 in 4.0 mi South 9.2 mph - N/A   Overcast
8:35 AM 44.6 °F 39.7 °F 41.0 °F 87% 29.73 in 4.0 mi South 9.2 mph - N/A   Overcast
8:55 AM 46.4 °F 42.4 °F 42.8 °F 87% 29.73 in 3.0 mi South 8.1 mph - N/A   Overcast
9:35 AM 46.4 °F 41.1 °F 44.6 °F 93% 29.73 in 4.0 mi South 11.5 mph - N/A   Overcast
9:55 AM 48.2 °F - 44.6 °F 87% 29.73 in 4.0 mi South 10.4 mph - N/A   Overcast
10:15 AM 48.2 °F - 44.6 °F 87% 29.71 in 5.0 mi South 11.5 mph - N/A   Overcast
10:35 AM 48.2 °F - 44.6 °F 87% 29.72 in 4.0 mi South 11.5 mph - N/A   Overcast
10:55 AM 48.2 °F - 46.4 °F 93% 29.71 in 4.0 mi South 12.7 mph - N/A   Overcast
11:15 AM 48.2 °F - 46.4 °F 93% 29.71 in 4.0 mi South 11.5 mph - N/A   Overcast
11:35 AM 50.0 °F - 46.4 °F 87% 29.69 in 4.0 mi South 12.7 mph - N/A   Overcast
11:55 AM 50.0 °F - 46.4 °F 87% 29.68 in 5.0 mi South 12.7 mph 18.4 mph N/A   Overcast
12:15 PM 51.8 °F - 46.4 °F 82% 29.67 in 7.0 mi South 15.0 mph - N/A   Overcast
12:35 PM 51.8 °F - 46.4 °F 82% 29.66 in 7.0 mi South 13.8 mph - N/A   Overcast
12:55 PM 51.8 °F - 48.2 °F 88% 29.64 in 7.0 mi South 12.7 mph 17.3 mph N/A   Mostly Cloudy
1:15 PM 51.8 °F - 48.2 °F 88% 29.63 in 10.0 mi SSE 13.8 mph - N/A   Scattered Clouds
1:35 PM 51.8 °F - 48.2 °F 88% 29.63 in 10.0 mi SSE 9.2 mph - N/A   Scattered Clouds
2:15 PM 53.6 °F - 48.2 °F 82% 29.61 in 10.0 mi SSE 11.5 mph - N/A   Clear
2:35 PM 53.6 °F - 46.4 °F 77% 29.61 in 10.0 mi SSE 10.4 mph - N/A   Clear
2:55 PM 53.6 °F - 46.4 °F 77% 29.61 in 10.0 mi SSE 9.2 mph - N/A   Clear
3:15 PM 51.8 °F - 46.4 °F 82% 29.60 in 10.0 mi SSE 10.4 mph - N/A   Clear
3:35 PM 51.8 °F - 46.4 °F 82% 29.61 in 10.0 mi SSE 10.4 mph - N/A   Clear
3:55 PM 51.8 °F - 46.4 °F 82% 29.61 in 10.0 mi South 11.5 mph - N/A   Clear
4:15 PM 51.8 °F - 46.4 °F 82% 29.61 in 10.0 mi South 11.5 mph - N/A   Clear
4:35 PM 51.8 °F - 46.4 °F 82% 29.61 in 10.0 mi South 13.8 mph - N/A   Clear
4:55 PM 53.6 °F - 46.4 °F 77% 29.61 in 10.0 mi South 11.5 mph - N/A   Clear
5:15 PM 51.8 °F - 46.4 °F 82% 29.60 in 10.0 mi SSE 10.4 mph - N/A   Clear
5:35 PM 53.6 °F - 46.4 °F 77% 29.59 in 10.0 mi SSE 12.7 mph 17.3 mph N/A   Clear
5:55 PM 53.6 °F - 46.4 °F 77% 29.59 in 10.0 mi South 11.5 mph 17.3 mph N/A   Clear
6:15 PM 53.6 °F - 46.4 °F 77% 29.59 in 10.0 mi SSE 11.5 mph - N/A   Clear
6:35 PM 53.6 °F - 46.4 °F 77% 29.59 in 10.0 mi South 11.5 mph - N/A   Clear
6:55 PM 51.8 °F - 46.4 °F 82% 29.59 in 10.0 mi South 12.7 mph - N/A   Clear
7:15 PM 51.8 °F - 44.6 °F 76% 29.60 in 10.0 mi South 12.7 mph - N/A   Clear
7:35 PM 53.6 °F - 44.6 °F 72% 29.60 in 10.0 mi South 12.7 mph - N/A   Clear
7:55 PM 53.6 °F - 44.6 °F 72% 29.61 in 10.0 mi South 15.0 mph - N/A   Clear
8:15 PM 55.4 °F - 46.4 °F 72% 29.61 in 10.0 mi South 18.4 mph 24.2 mph N/A   Clear
8:35 PM 53.6 °F - 44.6 °F 72% 29.61 in 10.0 mi South 15.0 mph - N/A   Clear
8:55 PM 53.6 °F - 44.6 °F 72% 29.61 in 10.0 mi South 12.7 mph - N/A   Clear
9:15 PM 51.8 °F - 44.6 °F 76% 29.61 in 10.0 mi South 13.8 mph - N/A   Clear
9:35 PM 51.8 °F - 44.6 °F 76% 29.61 in 10.0 mi South 13.8 mph - N/A   Clear
9:55 PM 51.8 °F - 44.6 °F 76% 29.61 in 10.0 mi South 12.7 mph - N/A   Clear
10:15 PM 51.8 °F - 44.6 °F 76% 29.62 in 10.0 mi South 12.7 mph - N/A   Clear
10:35 PM 53.6 °F - 44.6 °F 72% 29.62 in 10.0 mi South 15.0 mph 18.4 mph N/A   Clear
10:55 PM 55.4 °F - 44.6 °F 67% 29.62 in 10.0 mi South 18.4 mph - N/A   Clear
11:15 PM 55.4 °F - 44.6 °F 67% 29.62 in 10.0 mi South 15.0 mph 25.3 mph N/A   Clear
11:35 PM 53.6 °F - 44.6 °F 72% 29.62 in 10.0 mi South 12.7 mph - N/A   Clear
11:55 PM 53.6 °F - 44.6 °F 72% 29.63 in 10.0 mi South 15.0 mph 19.6 mph N/A   Clear